"Pseudo-MPEC" for P10PFlj

Created 2019 Jul 12 12:07:09 UT using Find_Orb

Click here for an explanation of pseudo-MPECs

 
 Astrometry: 
     P10PFlj  C2011 09 08WH3p+9SeA#ZK_7ID8GMcO\@eQ:#OWZQE+\88HY;\^Tsbx1/S9M(uF51
     P10PFlj  C2011 09 08Gme-^nrF=#\U^hWA'2:idR=?%E:ltlSX`rQ`5.CEJ'g\HnH=72CjF51
     P10PFlj  C2011 09 18*bI)VPv*BOc\!nwkt6'!Wc$L1ucwAstrometryS'ZW1j-atO67elF51
     P10PFlj  C2011 09 18+b]b\Mi8*,pV=ktn/'vC^-3knat^y:P^Vg9:C+yO!/FF);/e7RIxF51
     P10PFlj  C2011 09 18?oFC^Y]ir:Vr-KlJkGYlm=-(x.+v'vaDZA[I9uZe\+'N/MOB?B9LF51
     P10PFlj  C2011 09 18xAJ`'g'v)%0JaZ=6n\sSd!7Q^0MR6M:fT:.\j7a;4X9(nf[XAwIrF51
     P10PFlj  C2011 10 176YhI;cFp#T,GkGH,J6=?3)TEJ,IwB\Qd,1YoW)Mf5t17vr;3jX,#F51
     P10PFlj  C2011 10 17;`#?lLph.!R:22dDo70+1uvbm7u^I';A7hDbVSccGPO1tD^OhY%PF51
     P10PFlj  C2012 10 09MpKe?,7'EOoC7LPT5x*dcX.fp8TP=^Wh/B-oyv!NlE?redacted;F51
     P10PFlj  C2012 10 09rus-MXK7j3Wa%ekwIHe2Dr[KWy#GruBF\pXaaHur/]w`bL5-!`#:F51
     P10PFlj  C2012 12 29B$fq2Tpj;19j]kt#BZ%+,Ztm[Z28NT;%'YgrOxes6g0DakJFQ*@yF51
     P10PFlj  C2012 12 29?T1W)?sxDi%XVwa/ZE^yU(:,`,j+/4f=[9;Y)A7_rRHi3mMf#U#bF51
     P10PFlj  C2015 06 25f/RFnZ0\xEPmYYhpr;IA*6hWkf(INH2[n'wNk3kcNJBtoWwj;32rF51
     P10PFlj  C2015 06 25i$_K'gs9g@ypfgvWPJ'MAUBxSfn@xf0V%[]GUwIvq#l]jCn@mOm4F51
     P10PFlj  C2015 06 25+ig^/5X.Uhd[$H\Yy+/p.V.RysFR@57dVOsk-[Fv[=3!IvK1R3d+F51
     P10PFlj  C2015 08 10j7RB1g3uwbIho^hE^JE`A2;D/g0aTtGDey@v@SL=;O_13'VL+V2MF51
     P10PFlj  C2015 08 10hNKQo[m#U:Ht9hq3Bw*7LC9JYeVix]1.cOj0RyJTt=CEP?B4VHWYF51
     P10PFlj  C2015 08 10a[lMk5%(F_7/4[?@ZCclickO.`LSjkOX!w54_K2;kEP6KqE8+BgnF51
     P10PFlj  C2015 08 11]9!M^Q,`NutgUy=pj2t,88#7Qb30pX2xp=^Vk3+34`2+0WGw+S5DF51
     P10PFlj  C2015 08 110uLmm7d%IbvfFR13]DGC1R.BS+M,@Kpwmn41s7soWsB-9A.7,aENF51
     P10PFlj  C2016 08 21:PU!J[K$[HqO6]#MVr**NMkhny%T:$(UT70XL[\.^-7tj:!3,_;3F51
     P10PFlj  C2016 10 12P)[)b5DfqStccR5xhw6v5e@OgAMX;0;Pn$f8D7EsTb%D`nuQj0d:F51
     P10PFlj  C2016 10 12),V0fhKQ*EbB]`3(YBD_f*-;5QLQ;@4GPEh?J?#de!%6]_2'xRe+F51
     P10PFlj  C2016 10 12m!\?,w9Ayj@g/D,2KJQ'KV=.o)iG[TRO/hHfb]?RW,a!lMX.Ah%)F51
     P10PFlj  C2016 10 12^/r+D8s6BRF*ie\KwU=$63\DTJ#]bf/n16,*LfX30here!RF!$wVF51
     P10PFlj  C2018 01 17A!lU]j/bHGJ4VrElX*rE0*2u+du,hs=dtcs2T\N)xj:qj`ON3N^=F51
     P10PFlj  C2018 01 17`3I%//m\L106*vDAJ$Ij@4%Iblx!/84X=forwBe3HvD8[@\Vk6ZnF51
     P10PFlj  C2018 01 17[yhoX7XJiY3(GFEyhdf6a0Ov+eRP2D]e2,w#d!Gw5)y[(RIm9.OhF51
     P10PFlj  C2019 07 06*4.6d0bGBNS?+rARIV[HkdTnWs-ePI6^9TH;po7DWOtR(Db=FS'UF51
     P10PFlj  C2019 07 06G8NT#P*@B?Nj5D_Lhb]q65S4wq5PRjQk,HHj)B3HpW7:=\Y!SIkaF51
     P10PFlj  C2019 07 06^hXMs0=JU50$]U-%B/Oy!i?%OtXye?7.Qd'[+qppO-K\fGF;FG^=F51
     P10PFlj ^C2019 07 10.52966221 50 59.272+02 05 25.27   ~7AMq 21.30GVNEOCP568
     P10PFlj ^C2019 07 10.53084121 50 59.215+02 05 25.76   ~7AMq 21.16GVNEOCP568
     P10PFlj ^C2019 07 10.53202121 50 59.164+02 05 26.20   ~7AMq 21.29GVNEOCP568
     P10PFlj KC2019 07 12@cl:uEo\hFo[T4+$c8)$PFswGWng@:'p`aevOeQx(2-p130;g5EgH21
     P10PFlj KC2019 07 12.v4@jU:+70explanationkxuA(;rZw_gm#SZgnHm5ej$+ZYyep00H21
     P10PFlj KC2019 07 12I_RQ$1QcSx@,Y.T'dGp)7thL.h7$x'7.Xl2DCPwBJ)!2]\Q*,Zv[H21

Station data:
(568) Mauna Kea  (N19.826116 W155.472200)  US/Hawaii.
(F51) Pan-STARRS 1, Haleakala  (N20.707235 W156.255910)  US/Hawaii.
   Observers N. Primak, A. Schultz, S. Watters, J. Thiel, T. Goggia. Measurer
   PS1 Science Consortium. 1.8-m Ritchey-Chrétien + CCD.
(H21) Astronomical Research Observatory, Westfield  (N39.483057 W87.968270)
   US/Illinois. 0.76-m f/3.0 astrograph + CCD.

Orbital elements:  P10PFlj
   Perihelion 2018 Apr 19.869168 +/- 0.00022 TT = 20:51:36 (JD 2458228.369168)
Epoch 2019 Jul 12.0 TT = JDT 2458676.5   Earth MOID: 0.9910   AutoNEOCP
M 105.09186204 +/- 0.000046         (J2000 ecliptic)
n   0.23451156 +/- 2.66e-8          Peri.  248.50225 +/- 0.00006
a   2.60431317 +/- 1.97e-7          Node   297.47924 +/- 0.000048
e   0.2962748 +/- 3.41e-7           Incl.   28.54230 +/- 0.000024
P   4.20                   H 16.9   G  0.15   U  1.1  
q 1.83272070 +/- 8.14e-7    Q 3.37590564 +/- 1.06e-6
From 37 observations 2011 Sept. 8-2019 July 12; mean residual 0".18
Residuals in arcseconds: 
110908 F51  .05+  .02-    150625 F51  .04-  .22+    180117 F51  .12+  .05+    
110908 F51  .27-  .31+    150625 F51  .25+  .18-    180117 F51  .10+  .09+    
110918 F51  .11-  .25-    150810 F51  .03+  .11-    190706 F51  .08+  .14+    
110918 F51  .23+  .06+    150810 F51  .01-  .12-    190706 F51  .14+  .10-    
110918 F51  .04-  .07-    150810 F51  .09+  .20-    190706 F51  .35-  .21-    
110918 F51  .14-  .14-    150811 F51  .04-  .07-    190710 568  .03-  .15-    
111017 F51  .12-  .58+    150811 F51  .03-  .05-    190710 568  .09-  .12-    
111017 F51  .26-  .14+    160821 F51  .09+  .34-    190710 568  .05-  .13-    
121009 F51  .07-  .02-    161012 F51  .08-  .06+    190712 H21  .45+  .40+    
121009 F51  .26+  .21-    161012 F51  .03+  .01-    190712 H21  .08+  .39+    
121229 F51  .08-  .12+    161012 F51  .09+  .17+    190712 H21  .19-  .01+    
121229 F51  .01+  .04-    161012 F51  .30-  .23-    
150625 F51  .11-  .00     180117 F51  .02+  .14+    

Ephemerides (geocentric):
Date (UTC) HH   RA              Dec         delta   r     elong  mag " sig PA
---- -- -- --  -------------   -----------  ------ ------ -----  --- ---- ---
2019 07 12 12  21 49 30.591   +02 17 47.99  2.1629 2.9892 137.1 21.7 7.5m  40
2019 07 12 13  21 49 28.664   +02 18 03.32  2.1627 2.9893 137.2 21.7 7.5m  40
2019 07 12 14  21 49 26.735   +02 18 18.63  2.1624 2.9894 137.2 21.7 7.5m  40
2019 07 12 15  21 49 24.804   +02 18 33.92  2.1621 2.9895 137.3 21.7 7.5m  40
2019 07 12 16  21 49 22.871   +02 18 49.20  2.1619 2.9896 137.3 21.7 7.5m  40
2019 07 12 17  21 49 20.936   +02 19 04.47  2.1616 2.9897 137.3 21.7 7.5m  40
2019 07 12 18  21 49 18.998   +02 19 19.72  2.1614 2.9898 137.4 21.7 7.5m  39
2019 07 12 19  21 49 17.059   +02 19 34.95  2.1611 2.9899 137.4 21.7 7.5m  39
2019 07 12 20  21 49 15.117   +02 19 50.17  2.1608 2.9900 137.5 21.7 7.5m  39
2019 07 12 21  21 49 13.173   +02 20 05.38  2.1606 2.9901 137.5 21.7 7.5m  39
2019 07 12 22  21 49 11.227   +02 20 20.57  2.1603 2.9902 137.5 21.7 7.5m  39
2019 07 12 23  21 49 09.279   +02 20 35.74  2.1601 2.9903 137.6 21.7 7.5m  39
2019 07 13 00  21 49 07.329   +02 20 50.90  2.1598 2.9904 137.6 21.7 7.5m  39
2019 07 13 01  21 49 05.377   +02 21 06.05  2.1595 2.9905 137.7 21.7 7.6m  39
2019 07 13 02  21 49 03.422   +02 21 21.18  2.1593 2.9906 137.7 21.7 7.6m  39
2019 07 13 03  21 49 01.466   +02 21 36.30  2.1590 2.9907 137.7 21.7 7.6m  39
2019 07 13 04  21 48 59.507   +02 21 51.40  2.1588 2.9908 137.8 21.7 7.6m  39
2019 07 13 05  21 48 57.547   +02 22 06.49  2.1585 2.9909 137.8 21.7 7.6m  39
2019 07 13 06  21 48 55.584   +02 22 21.56  2.1582 2.9910 137.9 21.7 7.6m  39
2019 07 13 07  21 48 53.619   +02 22 36.61  2.1580 2.9911 137.9 21.7 7.6m  39
2019 07 13 08  21 48 51.652   +02 22 51.66  2.1577 2.9912 138.0 21.7 7.6m  39
2019 07 13 09  21 48 49.683   +02 23 06.68  2.1575 2.9913 138.0 21.7 7.6m  39
2019 07 13 10  21 48 47.712   +02 23 21.69  2.1572 2.9914 138.0 21.7 7.6m  39
2019 07 13 11  21 48 45.739   +02 23 36.69  2.1570 2.9915 138.1 21.7 7.6m  39
2019 07 13 12  21 48 43.764   +02 23 51.67  2.1567 2.9915 138.1 21.7 7.6m  39
2019 07 13 13  21 48 41.787   +02 24 06.64  2.1565 2.9916 138.2 21.7 7.6m  39
2019 07 13 14  21 48 39.807   +02 24 21.59  2.1562 2.9917 138.2 21.7 7.6m  39
2019 07 13 15  21 48 37.826   +02 24 36.53  2.1560 2.9918 138.2 21.7 7.6m  38
2019 07 13 16  21 48 35.842   +02 24 51.45  2.1557 2.9919 138.3 21.7 7.6m  38
2019 07 13 17  21 48 33.856   +02 25 06.35  2.1554 2.9920 138.3 21.7 7.7m  38
2019 07 13 18  21 48 31.869   +02 25 21.25  2.1552 2.9921 138.4 21.7 7.7m  38
2019 07 13 19  21 48 29.879   +02 25 36.12  2.1549 2.9922 138.4 21.7 7.7m  38
2019 07 13 20  21 48 27.887   +02 25 50.98  2.1547 2.9923 138.4 21.7 7.7m  38
2019 07 13 21  21 48 25.893   +02 26 05.83  2.1544 2.9924 138.5 21.7 7.7m  38
2019 07 13 22  21 48 23.897   +02 26 20.66  2.1542 2.9925 138.5 21.7 7.7m  38
2019 07 13 23  21 48 21.899   +02 26 35.48  2.1539 2.9926 138.6 21.7 7.7m  38
2019 07 14 00  21 48 19.899   +02 26 50.28  2.1537 2.9927 138.6 21.7 7.7m  38
2019 07 14 01  21 48 17.897   +02 27 05.06  2.1534 2.9928 138.6 21.7 7.7m  38
2019 07 14 02  21 48 15.893   +02 27 19.83  2.1532 2.9929 138.7 21.7 7.7m  38
2019 07 14 03  21 48 13.886   +02 27 34.59  2.1529 2.9930 138.7 21.7 7.7m  38
2019 07 14 04  21 48 11.878   +02 27 49.33  2.1527 2.9931 138.8 21.7 7.7m  38
2019 07 14 05  21 48 09.868   +02 28 04.05  2.1524 2.9932 138.8 21.7 7.7m  38
2019 07 14 06  21 48 07.855   +02 28 18.76  2.1522 2.9933 138.9 21.7 7.7m  38
2019 07 14 07  21 48 05.841   +02 28 33.46  2.1520 2.9934 138.9 21.7 7.7m  38
2019 07 14 08  21 48 03.824   +02 28 48.14  2.1517 2.9935 138.9 21.7 7.7m  38
2019 07 14 09  21 48 01.806   +02 29 02.80  2.1515 2.9936 139.0 21.7 7.7m  38
2019 07 14 10  21 47 59.785   +02 29 17.45  2.1512 2.9937 139.0 21.7 7.8m  38
2019 07 14 11  21 47 57.762   +02 29 32.09  2.1510 2.9938 139.1 21.7 7.8m  38